Tracking 19717 objects as of 25-Jun-2019
HD Live streaming from Space Station
objects crossing your sky now

AMC-5 (GE-5)

Track AMC-5 (GE-5) now!
AMC-5 (GE-5) is classified as:


NORAD ID: 25516
Int'l Code: 1998-063B
Perigee: 36,040.1 km
Apogee: 36,080.2 km
Inclination: 6.7 °
Period: 1,449.7 minutes
Semi major axis: 42431 km
RCS: 9.3322 m2 (large)
Launch date: October 28, 1998
Source: SOCIETE EUROPEENNE DES SATELLITES (SES)
Launch site: FRENCH GUIANA (FRGUI)

Broadband internet, business television; 16 Ku-band; CONUS
aabbcc
Your satellite tracking list
Your tracking list is empty




NASA's NSSDC Master Catalog

Two Line Element Set (TLE):
1 25516U 98063B   19175.78692514  .00000068  00000-0  00000+0 0  9993
2 25516   6.6823  56.6590 0004721 345.5134 224.4617  0.99329017 75521
Source of the keplerian elements: AFSPC